User: anonymous   Login
Location: Unspecified
(0.0000°N, 0.0000°E)
Time: 20:39:43
(UTC+00:00)
Language:

COSMOS 2390 - Orbit

View from above orbital plane
View from above orbital plane
View from above satellite
View from above satellite

Ground track
Ground track

The orbit data is extracted from the following two-line orbital elements,

1 27464U 02036A   17172.66707203 +.00000019 +00000-0 +65720-4 0  9997
2 27464 082.4848 237.2726 0024011 235.7092 124.1719 12.44564548679486
Epoch (UTC): 21 June 2017 16:00:35
Eccentricity: 0.0024011
inclination: 82.4848°
perigee height: 1468 km
apogee height: 1506 km
right ascension of ascending node: 237.2726°
argument of perigee: 235.7092°
revolutions per day: 12.44564548
mean anomaly at epoch: 124.1719°
orbit number at epoch: 67948

The dashed part of the orbit path shows where the satellite is in the earth's shadow,  

DLR